[Iaude] MPEC A16: 2024 AD [a=2.00,e=0.54,i=1.4,H=28.7]
    mpec at marsden.cfa.harvard.edu 
    mpec at marsden.cfa.harvard.edu
       
    Tue Jan  2 14:46:44 EST 2024
    
    
  
M.P.E.C. 2024-A16                               Issued 2024 January 2, 19:44 UT
     The Minor Planet Electronic Circulars contain information on unusual
         minor planets, routine data on comets and natural satellites,
         and occasional editorial announcements.  They are published
    on behalf of Division F of the International Astronomical Union by the
          Minor Planet Center, Smithsonian Astrophysical Observatory,
                          Cambridge, MA 02138, U.S.A.
			  
             Prepared using the Tamkin Foundation Computer Network
                              MPC at CFA.HARVARD.EDU
            URL https://www.minorplanetcenter.net/    ISSN 1523-6714
                                    2024 AD                                     
Observations:
     K24A00D* C2024 01 01.27289804 32 38.560+11 49 17.46         21.69wXEA016F52
     K24A00D  C2024 01 01.28465504 32 38.045+11 48 25.37         21.58wXEA016F52
     K24A00D  C2024 01 01.29635904 32 37.499+11 47 32.48         21.66wXEA016F52
     K24A00D  C2024 01 01.30811804 32 36.869+11 46 38.41         21.66wXEA016F52
     K24A00D  C2024 01 01.43575304 32 30.037+11 35 58.11         20.92GVEA016F51
     K24A00D  C2024 01 01.43639604 32 30.022+11 35 55.15         21.04GVEA016F51
     K24A00D 7C2024 01 01.99943504 33 59.281+10 35 55.18         21.2 GVEA016Z84
     K24A00D 7C2024 01 02.00843304 33 59.455+10 34 45.67         20.7 GVEA016Z84
     K24A00D  C2024 01 02.08437304 34 35.51 +10 35 55.2                WEA016X09
     K24A00D  C2024 01 02.10531304 34 35.33 +10 33 14.2                WEA016X09
     K24A00D  C2024 01 02.11578304 34 35.23 +10 31 53.1                WEA016X09
     K24A00D KB2024 01 02.13050 04 34 49.06 +10 18 49.4          20.8 GXEA016H36
     K24A00D KB2024 01 02.14006 04 34 49.26 +10 17 33.0          20.8 GXEA016H36
     K24A00D KB2024 01 02.14961 04 34 49.44 +10 16 14.6          21.0 GXEA016H36
     K24A00D |C2024 01 02.17786004 34 34.950+10 23 22.60         20.8 GVEA016807
     K24A00D |C2024 01 02.18386004 34 35.000+10 22 31.70         20.9 GVEA016807
     K24A00D |C2024 01 02.18986004 34 35.070+10 21 40.60         20.7 GVEA016807
     K24A00D  C2024 01 02.29396904 35 28.776+09 58 12.54         20.55GVEA016F51
     K24A00D  C2024 01 02.29478904 35 28.776+09 58 04.93         20.52GVEA016F51
Observer details:
807 Cerro Tololo Observatory, La Serena.  Observers T. Linder, R. Holmes, L.
    Horn.  0.61-m f/11 Ritchey-Chretien + CCD.
F51 Pan-STARRS 1, Haleakala.  Observers J. Herman, T. Lowe, P. Minguez, A.
    Schultz, I. Smith.  Measurers K. Chambers, T. de Boer, J. Fairlamb, H.
    Gao, M. Huber, C.-C. Lin, E. Magnier, Y. Ramanjooloo, R. Wainscoat, R.
    Weryk.  1.8-m Ritchey-Chretien + CCD.
F52 Pan-STARRS 2, Haleakala.  Observers J. Herman, T. Lowe, P. Minguez, A.
    Schultz, I. Smith.  Measurers K. Chambers, T. de Boer, J. Fairlamb, H.
    Gao, M. Huber, C.-C. Lin, E. Magnier, Y. Ramanjooloo, R. Wainscoat, R.
    Weryk.  1.8-m Ritchey-Chretien + CCD.
H36 Sandlot Observatory, Scranton.  Observer G. Hug.  0.56-m f/4.8 reflector +
    CMO.
X09 Deep Random Survey, Rio Hurtado.  Observers A. Schnabel, D. Ruhela.
    Measurer S. Deen.  0.43-m reflector + CMOS.
Z84 Calar Alto-Schmidt.  Observers F. Ocana, R. Kresken, M. Micheli, L.
    Conversi.  Measurers F. Ocana, M. Micheli.  0.8-m f/3 Schmidt + CCD.
Orbital elements:
2024 AD                                                  Earth MOID = 0.0017 AU
Epoch 2023 Sept. 13.0 TT = JDT 2460200.5                Veres                   
M 310.98308              (2000.0)            P               Q                  
n   0.34925418     Peri.   31.25581     -0.75176830     -0.65900778             
a   1.9969858      Node   107.50106     +0.59980902     -0.69818614             
e   0.5390516      Incl.    1.41312     +0.27399556     -0.27972283             
P   2.82           H   28.78          G   0.15           U   7                  
Residuals in seconds of arc
240101 F52  0.0   0.0     240102 Z84  0.1-  0.1+    240102 807  0.2+  0.2-
240101 F52  0.2-  0.2+    240102 X09  0.3-  0.7+    240102 807  0.1-  0.1-
240101 F52  0.1+  0.1+    240102 X09  0.2+  0.2+    240102 807  0.5-  0.1+
240101 F52  0.1-  0.0     240102 X09  0.4+  0.9+    240102 F51  0.2+  0.2+
240101 F51  0.0   0.3-    240102 H36  0.3+  0.4-    240102 F51  0.2+  0.0
240101 F51  0.1+  0.2+    240102 H36  0.3+  0.3+
240101 Z84  0.0   0.2+    240102 H36  0.3+  0.2-
Ephemeris:
2024 AD                  a,e,i = 2.00, 0.54, 1                   q = 0.9205
Date    TT    R. A. (2000) Decl.     Delta      r    Elong.  Phase     V
2023 12 03    04 34 52.8 +16 51 01   0.1992  1.1844   174.9     4.3    26.0
...
2023 12 18    04 30 13.9 +15 46 40   0.1020  1.0815   161.9    16.4    24.9
...
2023 12 26    04 28 50.2 +14 48 37   0.05529 1.0332   153.4    25.2    23.7
...
2024 01 01    04 31 56.4 +12 10 06   0.02129 1.0013   147.2    32.2    21.8
2024 01 02    04 34 14.2 +10 40 17   0.01567 0.9964   146.1    33.4    21.1
2024 01 03    04 39 07.2 +07 31 16   0.01008 0.9916   144.8    34.9    20.2
...
2024 01 09    16 22 21.1 -18 08 06   0.02394 0.9655    41.1   137.9    27.2
...
2024 01 17    16 28 42.7 -15 52 29   0.06909 0.9392    48.3   128.5    28.4
...
2024 02 01    16 40 29.9 -15 47 17   0.1542  0.9196    60.7   110.9    28.8
M. P. C. Staff               (C) Copyright 2024 MPC           M.P.E.C. 2024-A16
    
    
More information about the Iaude
mailing list